Погода в Смирнове

Россия / Курганская область     56°18′20″N   63°12′04″E
темп.,
°C
ветер,
м/с
пор.,
м/с
влажн.,
%
обл.,
%
осадки,
мм/ч
давл.,
гПа
погр.,
м
13 апреля, вт
вт1323:00+3с339011 0.0 103936
02:00+2с34904 0.0 104053
05:00+1с22920 0.0 104121
08:00+3ссз12890 0.0 104263
11:00+7юз22740 0.0 1041382
14:00+11юз33580 0.0 1040802
17:00+12ююз45613 0.0 1038861
20:00+8ююз37855 0.0 1037115
14 апреля, ср
ср1423:00+7ююз4108968 0.0 1036179
02:00+6юз4118760 0.0 1034213
05:00+6юз4990100 0.0 1034170
08:00+8юз499057 0.0 1033233
11:00+14з567110 0.0 1031537
14:00+17з56627 0.0 1030851
17:00+18з466130 0.0 10291058
20:00+14юз347817 0.0 102851
15 апреля, чт
чт1523:00+12зюз358558 0.0 102776
02:00+10з338640 0.0 102721
05:00+9зюз22875 0.0 102615
08:00+11зюз24835 0.0 1026113
11:00+15юз35675 0.0 1024500
14:00+18юз45546 0.0 1022983
17:00+19юз56525 0.0 10201335
20:00+14ююз47695 0.0 1018107
16 апреля, пт
пт1623:00+11зюз36746 0.0 101883
02:00+9з3369100 0.0 101740
05:00+8зсз3374100 0.0 101638
08:00+9сз367344 0.0 1015170
11:00+12с557590 0.0 1015714
14:00+7ссв7885100 0.0 1017677
17:00+3ссв61195100 0.1 1018522
20:00+3ссв61196100 0.5 1018514
17 апреля, сб
сб1723:00+2ссв61196100 1.1 1018461
02:00+1ссв6108997 0.2 1018522
05:00−1ссв488386 0.3 1017316
08:000св467514 0.0 1017446
11:00+3св4560100 0.0 10161160
14:00+4св4448100 0.0 10151463
17:00+4св5545100 0.0 10141587
20:00+1св48586 0.0 1016249